#�ϑ�����,���ϕ���,���ϕ���,�ő啗��,�ő啗����������,�ő�u�ԕ���,�ő�u�ԕ�����������,,,,,,,,,,,,,,,,,,,,,,
#(�N����),(m/s)   ,(16����),(m/s)   ,(16����)        ,(m/s)       ,(16����)            ,,,,,,,,,,,,,,,,,,,,,,
2014/4/25 0:01,1.7,16,1.7,16,3,16,,,,,,,,,,,,,,,,,,,,,,
2014/4/25 0:02,1.8,16,1.8,16,3.1,16,,,,,,,,,,,,,,,,,,,,,,
2014/4/25 0:03,1.9,16,1.9,16,3,15,,,,,,,,,,,,,,,,,,,,,,
2014/4/25 0:04,2,16,2,16,2.9,16,,,,,,,,,,,,,,,,,,,,,,
2014/4/25 0:05,2.1,16,2.1,16,3,16,,,,,,,,,,,,,,,,,,,,,,
2014/4/25 0:06,2.1,16,2.1,16,2.4,16,,,,,,,,,,,,,,,,,,,,,,
2014/4/25 0:07,2,16,2.1,16,2.2,15,,,,,,,,,,,,,,,,,,,,,,
2014/4/25 0:08,2,16,2,16,2.2,16,,,,,,,,,,,,,,,,,,,,,,
2014/4/25 0:09,1.9,16,2,16,2.1,16,,,,,,,,,,,,,,,,,,,,,,
2014/4/25 0:10,1.9,16,1.9,16,1.8,15,,,,,,,,,,,,,,,,,,,,,,
2014/4/25 0:11,1.7,15,1.8,16,1.3,15,,,,,,,,,,,,,,,,,,,,,,
2014/4/25 0:12,1.6,15,1.7,16,1.4,15,,,,,,,,,,,,,,,,,,,,,,
2014/4/25 0:13,1.5,15,1.5,16,1.9,16,,,,,,,,,,,,,,,,,,,,,,
2014/4/25 0:14,1.4,15,1.5,16,1.9,15,,,,,,,,,,,,,,,,,,,,,,
2014/4/25 0:15,1.3,16,1.4,16,2.1,16,,,,,,,,,,,,,,,,,,,,,,
2014/4/25 0:16,1.3,16,1.3,16,2,16,,,,,,,,,,,,,,,,,,,,,,
2014/4/25 0:17,1.3,16,1.3,16,1.8,16,,,,,,,,,,,,,,,,,,,,,,
2014/4/25 0:18,1.3,16,1.3,16,1.9,15,,,,,,,,,,,,,,,,,,,,,,
2014/4/25 0:19,1.3,16,1.3,16,2.1,16,,,,,,,,,,,,,,,,,,,,,,
2014/4/25 0:20,1.4,16,1.4,16,2.7,16,,,,,,,,,,,,,,,,,,,,,,
2014/4/25 0:21,1.5,16,1.5,15,3.2,16,,,,,,,,,,,,,,,,,,,,,,
2014/4/25 0:22,1.7,16,1.7,16,3.1,16,,,,,,,,,,,,,,,,,,,,,,
2014/4/25 0:23,1.7,16,1.7,16,3.2,16,,,,,,,,,,,,,,,,,,,,,,
2014/4/25 0:24,1.8,16,1.8,16,3,16,,,,,,,,,,,,,,,,,,,,,,
2014/4/25 0:25,1.8,16,1.8,16,2.5,15,,,,,,,,,,,,,,,,,,,,,,
2014/4/25 0:26,1.9,16,1.9,16,2.2,1,,,,,,,,,,,,,,,,,,,,,,
2014/4/25 0:27,1.9,16,1.9,16,2.1,16,,,,,,,,,,,,,,,,,,,,,,
2014/4/25 0:28,1.9,16,1.9,16,2.1,16,,,,,,,,,,,,,,,,,,,,,,
2014/4/25 0:29,1.8,16,1.9,16,1.5,15,,,,,,,,,,,,,,,,,,,,,,
2014/4/25 0:30,1.7,16,1.8,16,1.8,15,,,,,,,,,,,,,,,,,,,,,,
2014/4/25 0:31,1.6,16,1.7,16,1.8,16,,,,,,,,,,,,,,,,,,,,,,
2014/4/25 0:32,1.6,16,1.6,16,3.1,15,,,,,,,,,,,,,,,,,,,,,,
2014/4/25 0:33,1.6,16,1.6,16,3.1,15,,,,,,,,,,,,,,,,,,,,,,
2014/4/25 0:34,1.5,15,1.6,16,2.6,15,,,,,,,,,,,,,,,,,,,,,,
2014/4/25 0:35,1.4,16,1.5,16,1.5,15,,,,,,,,,,,,,,,,,,,,,,
2014/4/25 0:36,1.3,16,1.4,16,1.1,16,,,,,,,,,,,,,,,,,,,,,,
2014/4/25 0:37,1.2,16,1.3,16,0.9,16,,,,,,,,,,,,,,,,,,,,,,
2014/4/25 0:38,1,16,1.2,16,0.4,2,,,,,,,,,,,,,,,,,,,,,,
2014/4/25 0:39,1,16,1,16,0.6,15,,,,,,,,,,,,,,,,,,,,,,
2014/4/25 0:40,0.9,16,1,16,1,1,,,,,,,,,,,,,,,,,,,,,,
2014/4/25 0:41,1,16,1,16,2,16,,,,,,,,,,,,,,,,,,,,,,
2014/4/25 0:42,0.9,16,1,16,2.1,15,,,,,,,,,,,,,,,,,,,,,,
2014/4/25 0:43,0.9,16,0.9,16,2.2,15,,,,,,,,,,,,,,,,,,,,,,
2014/4/25 0:44,1,16,1,15,3.2,15,,,,,,,,,,,,,,,,,,,,,,
2014/4/25 0:45,1.1,16,1.1,16,3,15,,,,,,,,,,,,,,,,,,,,,,
2014/4/25 0:46,1.2,16,1.3,16,3,16,,,,,,,,,,,,,,,,,,,,,,
2014/4/25 0:47,1.4,16,1.4,16,2.4,16,,,,,,,,,,,,,,,,,,,,,,
2014/4/25 0:48,1.5,15,1.5,16,2.1,15,,,,,,,,,,,,,,,,,,,,,,
2014/4/25 0:49,1.7,15,1.7,15,2.1,15,,,,,,,,,,,,,,,,,,,,,,
2014/4/25 0:50,1.7,15,1.7,15,1.8,15,,,,,,,,,,,,,,,,,,,,,,
2014/4/25 0:51,1.7,15,1.7,15,2.2,15,,,,,,,,,,,,,,,,,,,,,,
2014/4/25 0:52,1.7,15,1.8,15,2.4,15,,,,,,,,,,,,,,,,,,,,,,
2014/4/25 0:53,1.7,15,1.7,15,2,16,,,,,,,,,,,,,,,,,,,,,,
2014/4/25 0:54,1.5,15,1.6,15,1,15,,,,,,,,,,,,,,,,,,,,,,
2014/4/25 0:55,1.4,15,1.5,15,1.6,15,,,,,,,,,,,,,,,,,,,,,,
2014/4/25 0:56,1.3,15,1.4,15,2,15,,,,,,,,,,,,,,,,,,,,,,
2014/4/25 0:57,1.2,15,1.3,15,2,16,,,,,,,,,,,,,,,,,,,,,,
2014/4/25 0:58,1.3,15,1.3,15,2.7,16,,,,,,,,,,,,,,,,,,,,,,
2014/4/25 0:59,1.3,16,1.3,15,2,16,,,,,,,,,,,,,,,,,,,,,,
2014/4/25 1:00,1.3,16,1.3,15,2,16,,,,,,,,,,,,,,,,,,,,,,
2014/4/25 1:01,1.2,16,1.3,15,2,15,,,,,,,,,,,,,,,,,,,,,,
2014/4/25 1:02,1.1,15,1.2,15,1,1,,,,,,,,,,,,,,,,,,,,,,
2014/4/25 1:03,1.2,16,1.2,15,1.6,16,,,,,,,,,,,,,,,,,,,,,,
2014/4/25 1:04,1.2,15,1.2,15,1.8,15,,,,,,,,,,,,,,,,,,,,,,
2014/4/25 1:05,1.2,15,1.2,15,1,15,,,,,,,,,,,,,,,,,,,,,,
2014/4/25 1:06,1,15,1.2,15,0.4,14,,,,,,,,,,,,,,,,,,,,,,
2014/4/25 1:07,1,15,1,15,0.5,9,,,,,,,,,,,,,,,,,,,,,,
2014/4/25 1:08,0.8,14,1,15,0.5,9,,,,,,,,,,,,,,,,,,,,,,
2014/4/25 1:09,0.7,13,0.8,16,0.3,9,,,,,,,,,,,,,,,,,,,,,,
2014/4/25 1:10,0.6,12,0.7,16,1,10,,,,,,,,,,,,,,,,,,,,,,
2014/4/25 1:11,0.6,11,0.6,16,0.9,10,,,,,,,,,,,,,,,,,,,,,,
2014/4/25 1:12,0.6,11,0.6,16,1.1,13,,,,,,,,,,,,,,,,,,,,,,
2014/4/25 1:13,0.6,11,0.6,16,1.6,12,,,,,,,,,,,,,,,,,,,,,,
2014/4/25 1:14,0.5,11,0.6,15,1.3,13,,,,,,,,,,,,,,,,,,,,,,
2014/4/25 1:15,0.5,11,0.5,15,0.8,9,,,,,,,,,,,,,,,,,,,,,,
2014/4/25 1:16,0.6,11,0.6,15,1.5,11,,,,,,,,,,,,,,,,,,,,,,
2014/4/25 1:17,0.6,11,0.6,15,0.9,9,,,,,,,,,,,,,,,,,,,,,,
2014/4/25 1:18,0.6,11,0.6,14,0.9,9,,,,,,,,,,,,,,,,,,,,,,
2014/4/25 1:19,0.7,11,0.7,13,0.5,11,,,,,,,,,,,,,,,,,,,,,,
2014/4/25 1:20,0.6,11,0.7,11,0.4,11,,,,,,,,,,,,,,,,,,,,,,
2014/4/25 1:21,0.5,11,0.6,11,0.1,6,,,,,,,,,,,,,,,,,,,,,,
2014/4/25 1:22,0.5,11,0.5,11,0.5,10,,,,,,,,,,,,,,,,,,,,,,
2014/4/25 1:23,0.3,10,0.4,11,0.4,14,,,,,,,,,,,,,,,,,,,,,,
2014/4/25 1:24,0.3,10,0.3,11,0.5,15,,,,,,,,,,,,,,,,,,,,,,
2014/4/25 1:25,0.3,11,0.3,11,0.8,1,,,,,,,,,,,,,,,,,,,,,,
2014/4/25 1:26,0.3,11,0.3,11,1.1,1,,,,,,,,,,,,,,,,,,,,,,
2014/4/25 1:27,0.3,13,0.3,11,0.9,15,,,,,,,,,,,,,,,,,,,,,,
2014/4/25 1:28,0.3,14,0.3,11,1,15,,,,,,,,,,,,,,,,,,,,,,
2014/4/25 1:29,0.3,13,0.3,11,0.5,9,,,,,,,,,,,,,,,,,,,,,,
2014/4/25 1:30,0.3,13,0.3,11,0.6,9,,,,,,,,,,,,,,,,,,,,,,
2014/4/25 1:31,0.4,13,0.4,11,0.5,7,,,,,,,,,,,,,,,,,,,,,,
2014/4/25 1:32,0.4,14,0.4,10,0.5,15,,,,,,,,,,,,,,,,,,,,,,
2014/4/25 1:33,0.4,15,0.4,13,0.4,16,,,,,,,,,,,,,,,,,,,,,,
2014/4/25 1:34,0.3,16,0.4,13,0.3,5,,,,,,,,,,,,,,,,,,,,,,
2014/4/25 1:35,0.3,2,0.3,13,0.1,5,,,,,,,,,,,,,,,,,,,,,,
2014/4/25 1:36,0.2,2,0.3,13,0.4,3,,,,,,,,,,,,,,,,,,,,,,
2014/4/25 1:37,0.2,4,0.2,13,0.4,4,,,,,,,,,,,,,,,,,,,,,,
2014/4/25 1:38,0.2,4,0.2,13,0.3,4,,,,,,,,,,,,,,,,,,,,,,
2014/4/25 1:39,0.2,3,0.2,13,0.1,4,,,,,,,,,,,,,,,,,,,,,,
2014/4/25 1:40,0.2,3,0.2,13,1.3,8,,,,,,,,,,,,,,,,,,,,,,
2014/4/25 1:41,0.2,3,0.2,13,1.3,9,,,,,,,,,,,,,,,,,,,,,,
2014/4/25 1:42,0.3,4,0.3,14,1,9,,,,,,,,,,,,,,,,,,,,,,
2014/4/25 1:43,0.3,5,0.4,15,0.9,9,,,,,,,,,,,,,,,,,,,,,,
2014/4/25 1:44,0.4,6,0.4,5,0.5,9,,,,,,,,,,,,,,,,,,,,,,
2014/4/25 1:45,0.4,7,0.4,5,0.9,9,,,,,,,,,,,,,,,,,,,,,,
2014/4/25 1:46,0.5,8,0.5,8,1.1,10,,,,,,,,,,,,,,,,,,,,,,
2014/4/25 1:47,0.6,9,0.6,8,1.1,10,,,,,,,,,,,,,,,,,,,,,,
2014/4/25 1:48,0.7,10,0.7,9,1.1,11,,,,,,,,,,,,,,,,,,,,,,
2014/4/25 1:49,0.8,10,0.8,10,1.3,11,,,,,,,,,,,,,,,,,,,,,,
2014/4/25 1:50,0.8,10,0.8,10,1.4,12,,,,,,,,,,,,,,,,,,,,,,
2014/4/25 1:51,0.8,10,0.8,10,1.5,11,,,,,,,,,,,,,,,,,,,,,,
2014/4/25 1:52,0.8,11,0.8,10,1.1,12,,,,,,,,,,,,,,,,,,,,,,
2014/4/25 1:53,0.9,11,0.9,11,1,10,,,,,,,,,,,,,,,,,,,,,,
2014/4/25 1:54,0.9,11,0.9,11,0.9,10,,,,,,,,,,,,,,,,,,,,,,
2014/4/25 1:55,0.9,11,0.9,11,0.5,11,,,,,,,,,,,,,,,,,,,,,,
2014/4/25 1:56,0.8,11,0.9,11,0.5,14,,,,,,,,,,,,,,,,,,,,,,
2014/4/25 1:57,0.7,12,0.8,11,0.6,1,,,,,,,,,,,,,,,,,,,,,,
2014/4/25 1:58,0.7,12,0.7,11,0.4,2,,,,,,,,,,,,,,,,,,,,,,
2014/4/25 1:59,0.6,12,0.7,11,1,1,,,,,,,,,,,,,,,,,,,,,,
2014/4/25 2:00,0.6,13,0.6,11,1.4,1,,,,,,,,,,,,,,,,,,,,,,
2014/4/25 2:01,0.6,14,0.6,11,1.5,16,,,,,,,,,,,,,,,,,,,,,,
2014/4/25 2:02,0.6,15,0.6,11,1.5,16,,,,,,,,,,,,,,,,,,,,,,
2014/4/25 2:03,0.6,16,0.6,11,1.4,16,,,,,,,,,,,,,,,,,,,,,,
2014/4/25 2:04,0.7,16,0.7,11,1.1,1,,,,,,,,,,,,,,,,,,,,,,
2014/4/25 2:05,0.8,1,0.8,11,1.6,1,,,,,,,,,,,,,,,,,,,,,,
2014/4/25 2:06,0.8,1,0.8,11,1.4,2,,,,,,,,,,,,,,,,,,,,,,
2014/4/25 2:07,0.8,1,0.9,1,1.4,2,,,,,,,,,,,,,,,,,,,,,,
2014/4/25 2:08,0.8,1,0.8,1,0.3,15,,,,,,,,,,,,,,,,,,,,,,
2014/4/25 2:09,0.8,16,0.8,1,0.1,15,,,,,,,,,,,,,,,,,,,,,,
2014/4/25 2:10,0.7,16,0.8,1,0.6,15,,,,,,,,,,,,,,,,,,,,,,
2014/4/25 2:11,0.6,1,0.7,1,0.4,16,,,,,,,,,,,,,,,,,,,,,,
2014/4/25 2:12,0.6,1,0.6,1,0.5,3,,,,,,,,,,,,,,,,,,,,,,
2014/4/25 2:13,0.5,1,0.6,1,0.5,1,,,,,,,,,,,,,,,,,,,,,,
2014/4/25 2:14,0.4,1,0.5,1,0.4,16,,,,,,,,,,,,,,,,,,,,,,
2014/4/25 2:15,0.3,1,0.4,1,0.1,2,,,,,,,,,,,,,,,,,,,,,,
2014/4/25 2:16,0.2,1,0.3,1,0.5,15,,,,,,,,,,,,,,,,,,,,,,
2014/4/25 2:17,0.2,16,0.2,1,0.5,15,,,,,,,,,,,,,,,,,,,,,,
2014/4/25 2:18,0.2,16,0.2,1,0.3,14,,,,,,,,,,,,,,,,,,,,,,
2014/4/25 2:19,0.2,16,0.2,16,0.1,15,,,,,,,,,,,,,,,,,,,,,,
2014/4/25 2:20,0.1,16,0.2,16,0.4,13,,,,,,,,,,,,,,,,,,,,,,
2014/4/25 2:21,0.1,16,0.1,1,0.4,14,,,,,,,,,,,,,,,,,,,,,,
2014/4/25 2:22,0.1,15,0.1,1,0.3,12,,,,,,,,,,,,,,,,,,,,,,
2014/4/25 2:23,0.1,15,0.1,1,0,12,,,,,,,,,,,,,,,,,,,,,,
2014/4/25 2:24,0.1,14,0.1,1,0.3,14,,,,,,,,,,,,,,,,,,,,,,
2014/4/25 2:25,0.1,14,0.1,1,0.6,13,,,,,,,,,,,,,,,,,,,,,,
2014/4/25 2:26,0.2,14,0.2,1,1,15,,,,,,,,,,,,,,,,,,,,,,
2014/4/25 2:27,0.2,14,0.2,16,0.9,15,,,,,,,,,,,,,,,,,,,,,,
2014/4/25 2:28,0.2,14,0.2,16,0.4,14,,,,,,,,,,,,,,,,,,,,,,
2014/4/25 2:29,0.3,13,0.3,13,0.6,10,,,,,,,,,,,,,,,,,,,,,,
2014/4/25 2:30,0.2,13,0.3,13,0.1,10,,,,,,,,,,,,,,,,,,,,,,
2014/4/25 2:31,0.2,13,0.2,13,0.1,10,,,,,,,,,,,,,,,,,,,,,,
2014/4/25 2:32,0.2,12,0.2,13,0,10,,,,,,,,,,,,,,,,,,,,,,
2014/4/25 2:33,0.3,12,0.3,13,0.9,9,,,,,,,,,,,,,,,,,,,,,,
2014/4/25 2:34,0.4,11,0.4,11,1.3,8,,,,,,,,,,,,,,,,,,,,,,
2014/4/25 2:35,0.4,10,0.4,11,1,7,,,,,,,,,,,,,,,,,,,,,,
2014/4/25 2:36,0.4,10,0.4,11,0.9,6,,,,,,,,,,,,,,,,,,,,,,
2014/4/25 2:37,0.4,9,0.4,11,0.8,6,,,,,,,,,,,,,,,,,,,,,,
2014/4/25 2:38,0.4,8,0.4,11,0.6,6,,,,,,,,,,,,,,,,,,,,,,
2014/4/25 2:39,0.4,8,0.4,11,0.3,6,,,,,,,,,,,,,,,,,,,,,,
2014/4/25 2:40,0.4,7,0.4,11,0.3,3,,,,,,,,,,,,,,,,,,,,,,
2014/4/25 2:41,0.4,6,0.4,11,0.1,3,,,,,,,,,,,,,,,,,,,,,,
2014/4/25 2:42,0.4,6,0.4,11,0.1,3,,,,,,,,,,,,,,,,,,,,,,
2014/4/25 2:43,0.3,5,0.4,11,0.4,3,,,,,,,,,,,,,,,,,,,,,,
2014/4/25 2:44,0.3,4,0.3,11,0.1,3,,,,,,,,,,,,,,,,,,,,,,
2014/4/25 2:45,0.2,4,0.2,10,0.1,3,,,,,,,,,,,,,,,,,,,,,,
2014/4/25 2:46,0.1,4,0.2,10,0,3,,,,,,,,,,,,,,,,,,,,,,
2014/4/25 2:47,0.1,3,0.1,9,0.3,3,,,,,,,,,,,,,,,,,,,,,,
2014/4/25 2:48,0.1,3,0.1,8,0.8,2,,,,,,,,,,,,,,,,,,,,,,
2014/4/25 2:49,0.1,3,0.1,8,0.8,2,,,,,,,,,,,,,,,,,,,,,,
2014/4/25 2:50,0.2,3,0.2,7,0.9,2,,,,,,,,,,,,,,,,,,,,,,
2014/4/25 2:51,0.2,3,0.2,6,0.8,2,,,,,,,,,,,,,,,,,,,,,,
2014/4/25 2:52,0.3,2,0.3,6,1.1,1,,,,,,,,,,,,,,,,,,,,,,
2014/4/25 2:53,0.3,2,0.3,5,1.4,1,,,,,,,,,,,,,,,,,,,,,,
2014/4/25 2:54,0.4,2,0.4,2,1.1,1,,,,,,,,,,,,,,,,,,,,,,
2014/4/25 2:55,0.5,2,0.5,2,1.3,1,,,,,,,,,,,,,,,,,,,,,,
2014/4/25 2:56,0.6,2,0.6,2,0.9,1,,,,,,,,,,,,,,,,,,,,,,
2014/4/25 2:57,0.6,2,0.6,2,0.6,1,,,,,,,,,,,,,,,,,,,,,,
2014/4/25 2:58,0.6,2,0.6,2,0.6,1,,,,,,,,,,,,,,,,,,,,,,
2014/4/25 2:59,0.6,1,0.6,2,0.4,1,,,,,,,,,,,,,,,,,,,,,,
2014/4/25 3:00,0.5,1,0.6,2,0.4,1,,,,,,,,,,,,,,,,,,,,,,
2014/4/25 3:01,0.5,1,0.5,2,0,1,,,,,,,,,,,,,,,,,,,,,,
2014/4/25 3:02,0.5,1,0.5,2,0,1,,,,,,,,,,,,,,,,,,,,,,
2014/4/25 3:03,0.4,1,0.4,2,0.1,1,,,,,,,,,,,,,,,,,,,,,,
2014/4/25 3:04,0.3,1,0.4,2,0.4,1,,,,,,,,,,,,,,,,,,,,,,
2014/4/25 3:05,0.2,1,0.3,2,0,1,,,,,,,,,,,,,,,,,,,,,,
2014/4/25 3:06,0.1,1,0.2,2,0,1,,,,,,,,,,,,,,,,,,,,,,
2014/4/25 3:07,0.1,1,0.1,2,0.1,1,,,,,,,,,,,,,,,,,,,,,,
2014/4/25 3:08,0,1,0.1,2,0.1,1,,,,,,,,,,,,,,,,,,,,,,
2014/4/25 3:09,0,1,0,1,0,1,,,,,,,,,,,,,,,,,,,,,,
2014/4/25 3:10,0,1,0,1,0,1,,,,,,,,,,,,,,,,,,,,,,
2014/4/25 3:11,0,1,0,1,0.1,1,,,,,,,,,,,,,,,,,,,,,,
2014/4/25 3:12,0,1,0,1,0,1,,,,,,,,,,,,,,,,,,,,,,
2014/4/25 3:13,0,1,0,1,0.1,1,,,,,,,,,,,,,,,,,,,,,,
2014/4/25 3:14,0,1,0,1,0.5,1,,,,,,,,,,,,,,,,,,,,,,
2014/4/25 3:15,0.1,1,0.1,1,0.6,1,,,,,,,,,,,,,,,,,,,,,,
2014/4/25 3:16,0.1,1,0.1,1,0.4,1,,,,,,,,,,,,,,,,,,,,,,
2014/4/25 3:17,0.1,1,0.1,1,0.4,1,,,,,,,,,,,,,,,,,,,,,,
2014/4/25 3:18,0.1,1,0.1,1,0.3,1,,,,,,,,,,,,,,,,,,,,,,
2014/4/25 3:19,0.2,1,0.2,1,0.8,1,,,,,,,,,,,,,,,,,,,,,,
2014/4/25 3:20,0.2,1,0.2,1,1.1,1,,,,,,,,,,,,,,,,,,,,,,
2014/4/25 3:21,0.3,1,0.3,1,0.9,1,,,,,,,,,,,,,,,,,,,,,,
2014/4/25 3:22,0.3,1,0.3,1,0.5,1,,,,,,,,,,,,,,,,,,,,,,
2014/4/25 3:23,0.3,1,0.3,1,0.1,1,,,,,,,,,,,,,,,,,,,,,,
2014/4/25 3:24,0.3,1,0.3,1,0.5,1,,,,,,,,,,,,,,,,,,,,,,
2014/4/25 3:25,0.3,1,0.3,1,0.9,1,,,,,,,,,,,,,,,,,,,,,,
2014/4/25 3:26,0.3,1,0.3,1,0.6,1,,,,,,,,,,,,,,,,,,,,,,
2014/4/25 3:27,0.3,1,0.3,1,0.5,1,,,,,,,,,,,,,,,,,,,,,,
2014/4/25 3:28,0.3,1,0.3,1,0.1,1,,,,,,,,,,,,,,,,,,,,,,
2014/4/25 3:29,0.3,1,0.3,1,0.1,1,,,,,,,,,,,,,,,,,,,,,,
2014/4/25 3:30,0.2,1,0.2,1,0.1,1,,,,,,,,,,,,,,,,,,,,,,
2014/4/25 3:31,0.1,1,0.2,1,0.5,1,,,,,,,,,,,,,,,,,,,,,,
2014/4/25 3:32,0.2,1,0.2,1,0.6,1,,,,,,,,,,,,,,,,,,,,,,
2014/4/25 3:33,0.2,1,0.2,1,0.8,1,,,,,,,,,,,,,,,,,,,,,,
2014/4/25 3:34,0.2,1,0.2,1,0.4,1,,,,,,,,,,,,,,,,,,,,,,
2014/4/25 3:35,0.2,1,0.2,1,0.4,1,,,,,,,,,,,,,,,,,,,,,,
2014/4/25 3:36,0.2,1,0.2,1,0.5,1,,,,,,,,,,,,,,,,,,,,,,
2014/4/25 3:37,0.2,1,0.2,1,0.5,1,,,,,,,,,,,,,,,,,,,,,,
2014/4/25 3:38,0.2,1,0.2,1,0.1,1,,,,,,,,,,,,,,,,,,,,,,
2014/4/25 3:39,0.2,1,0.2,1,0.1,1,,,,,,,,,,,,,,,,,,,,,,
2014/4/25 3:40,0.2,1,0.2,1,0.1,1,,,,,,,,,,,,,,,,,,,,,,
2014/4/25 3:41,0.2,1,0.2,1,0.1,1,,,,,,,,,,,,,,,,,,,,,,
2014/4/25 3:42,0.1,1,0.2,1,0.1,1,,,,,,,,,,,,,,,,,,,,,,
2014/4/25 3:43,0.1,1,0.1,1,0.4,1,,,,,,,,,,,,,,,,,,,,,,
2014/4/25 3:44,0.1,1,0.1,1,0.3,1,,,,,,,,,,,,,,,,,,,,,,
2014/4/25 3:45,0.1,1,0.1,1,0.4,1,,,,,,,,,,,,,,,,,,,,,,
2014/4/25 3:46,0.1,1,0.1,1,0.5,1,,,,,,,,,,,,,,,,,,,,,,
2014/4/25 3:47,0.1,1,0.1,1,0.6,1,,,,,,,,,,,,,,,,,,,,,,
2014/4/25 3:48,0.1,1,0.1,1,0.5,1,,,,,,,,,,,,,,,,,,,,,,
2014/4/25 3:49,0.2,1,0.2,1,0.5,1,,,,,,,,,,,,,,,,,,,,,,
2014/4/25 3:50,0.2,1,0.2,1,0.5,1,,,,,,,,,,,,,,,,,,,,,,
2014/4/25 3:51,0.3,1,0.3,1,0.6,1,,,,,,,,,,,,,,,,,,,,,,
2014/4/25 3:52,0.3,1,0.3,1,0.8,1,,,,,,,,,,,,,,,,,,,,,,
2014/4/25 3:53,0.3,1,0.3,1,0.5,1,,,,,,,,,,,,,,,,,,,,,,
2014/4/25 3:54,0.4,1,0.4,1,0.6,1,,,,,,,,,,,,,,,,,,,,,,
2014/4/25 3:55,0.4,1,0.4,1,0.4,1,,,,,,,,,,,,,,,,,,,,,,
2014/4/25 3:56,0.4,1,0.4,1,0.6,1,,,,,,,,,,,,,,,,,,,,,,
2014/4/25 3:57,0.4,1,0.4,1,0.8,1,,,,,,,,,,,,,,,,,,,,,,
2014/4/25 3:58,0.4,1,0.4,1,0.8,1,,,,,,,,,,,,,,,,,,,,,,
2014/4/25 3:59,0.4,1,0.4,1,0.6,1,,,,,,,,,,,,,,,,,,,,,,
2014/4/25 4:00,0.4,1,0.4,1,0.8,1,,,,,,,,,,,,,,,,,,,,,,
2014/4/25 4:01,0.4,1,0.4,1,0.6,1,,,,,,,,,,,,,,,,,,,,,,
2014/4/25 4:02,0.4,1,0.4,1,0.6,1,,,,,,,,,,,,,,,,,,,,,,
2014/4/25 4:03,0.4,1,0.4,1,0.6,1,,,,,,,,,,,,,,,,,,,,,,
2014/4/25 4:04,0.4,1,0.4,1,1.4,1,,,,,,,,,,,,,,,,,,,,,,
2014/4/25 4:05,0.5,1,0.5,1,1.3,1,,,,,,,,,,,,,,,,,,,,,,
2014/4/25 4:06,0.5,1,0.5,1,1.1,1,,,,,,,,,,,,,,,,,,,,,,
2014/4/25 4:07,0.5,1,0.5,1,0.6,1,,,,,,,,,,,,,,,,,,,,,,
2014/4/25 4:08,0.5,1,0.5,1,0.8,1,,,,,,,,,,,,,,,,,,,,,,
2014/4/25 4:09,0.4,1,0.5,1,0.5,1,,,,,,,,,,,,,,,,,,,,,,
2014/4/25 4:10,0.4,1,0.4,1,0.1,1,,,,,,,,,,,,,,,,,,,,,,
2014/4/25 4:11,0.4,1,0.4,1,0.5,1,,,,,,,,,,,,,,,,,,,,,,
2014/4/25 4:12,0.4,1,0.4,1,0.4,1,,,,,,,,,,,,,,,,,,,,,,
2014/4/25 4:13,0.4,1,0.4,1,0.1,1,,,,,,,,,,,,,,,,,,,,,,
2014/4/25 4:14,0.3,1,0.4,1,0.1,1,,,,,,,,,,,,,,,,,,,,,,
2014/4/25 4:15,0.2,1,0.3,1,0,1,,,,,,,,,,,,,,,,,,,,,,
2014/4/25 4:16,0.2,1,0.2,1,0,1,,,,,,,,,,,,,,,,,,,,,,
2014/4/25 4:17,0.1,1,0.2,1,0.1,1,,,,,,,,,,,,,,,,,,,,,,
2014/4/25 4:18,0.1,1,0.1,1,0,1,,,,,,,,,,,,,,,,,,,,,,
2014/4/25 4:19,0.1,1,0.1,1,0,1,,,,,,,,,,,,,,,,,,,,,,
2014/4/25 4:20,0.1,1,0.1,1,0.5,1,,,,,,,,,,,,,,,,,,,,,,
2014/4/25 4:21,0,1,0.1,1,0.4,1,,,,,,,,,,,,,,,,,,,,,,
2014/4/25 4:22,0,1,0,1,0,1,,,,,,,,,,,,,,,,,,,,,,
2014/4/25 4:23,0,1,0,1,0.5,1,,,,,,,,,,,,,,,,,,,,,,
2014/4/25 4:24,0.1,1,0.1,1,0.5,8,,,,,,,,,,,,,,,,,,,,,,
2014/4/25 4:25,0.1,1,0.1,1,0,14,,,,,,,,,,,,,,,,,,,,,,
2014/4/25 4:26,0.1,1,0.1,1,0.1,15,,,,,,,,,,,,,,,,,,,,,,
2014/4/25 4:27,0.1,1,0.1,1,0.1,1,,,,,,,,,,,,,,,,,,,,,,
2014/4/25 4:28,0.1,1,0.1,1,0.1,16,,,,,,,,,,,,,,,,,,,,,,
2014/4/25 4:29,0.1,16,0.1,1,0,16,,,,,,,,,,,,,,,,,,,,,,
2014/4/25 4:30,0.1,16,0.1,1,0.4,2,,,,,,,,,,,,,,,,,,,,,,
2014/4/25 4:31,0.1,1,0.1,1,0.4,2,,,,,,,,,,,,,,,,,,,,,,
2014/4/25 4:32,0.1,16,0.1,1,0.5,16,,,,,,,,,,,,,,,,,,,,,,
2014/4/25 4:33,0.1,16,0.1,1,0.6,16,,,,,,,,,,,,,,,,,,,,,,
2014/4/25 4:34,0.2,16,0.2,16,0.6,16,,,,,,,,,,,,,,,,,,,,,,
2014/4/25 4:35,0.2,16,0.2,16,0.4,16,,,,,,,,,,,,,,,,,,,,,,
2014/4/25 4:36,0.2,1,0.2,16,0,16,,,,,,,,,,,,,,,,,,,,,,
2014/4/25 4:37,0.2,1,0.2,16,0.1,5,,,,,,,,,,,,,,,,,,,,,,
2014/4/25 4:38,0.2,1,0.2,16,0,5,,,,,,,,,,,,,,,,,,,,,,
2014/4/25 4:39,0.2,2,0.2,16,0,7,,,,,,,,,,,,,,,,,,,,,,
2014/4/25 4:40,0.2,2,0.2,16,0,7,,,,,,,,,,,,,,,,,,,,,,
2014/4/25 4:41,0.1,3,0.1,16,0,7,,,,,,,,,,,,,,,,,,,,,,
2014/4/25 4:42,0.1,4,0.1,16,0.1,7,,,,,,,,,,,,,,,,,,,,,,
2014/4/25 4:43,0,5,0.1,16,0,7,,,,,,,,,,,,,,,,,,,,,,
2014/4/25 4:44,0,6,0,16,0,7,,,,,,,,,,,,,,,,,,,,,,
2014/4/25 4:45,0,6,0,1,0.1,7,,,,,,,,,,,,,,,,,,,,,,
2014/4/25 4:46,0,7,0,1,0.6,7,,,,,,,,,,,,,,,,,,,,,,
2014/4/25 4:47,0.1,7,0.1,1,0.5,7,,,,,,,,,,,,,,,,,,,,,,
2014/4/25 4:48,0.1,7,0.1,1,0.4,7,,,,,,,,,,,,,,,,,,,,,,
2014/4/25 4:49,0.1,7,0.1,2,0,7,,,,,,,,,,,,,,,,,,,,,,
2014/4/25 4:50,0.1,7,0.1,2,0.4,7,,,,,,,,,,,,,,,,,,,,,,
2014/4/25 4:51,0.2,7,0.2,7,0.9,1,,,,,,,,,,,,,,,,,,,,,,
2014/4/25 4:52,0.2,6,0.2,7,1,1,,,,,,,,,,,,,,,,,,,,,,
2014/4/25 4:53,0.3,6,0.3,6,0.6,2,,,,,,,,,,,,,,,,,,,,,,
2014/4/25 4:54,0.3,5,0.3,6,0.8,2,,,,,,,,,,,,,,,,,,,,,,
2014/4/25 4:55,0.4,4,0.4,5,1.3,2,,,,,,,,,,,,,,,,,,,,,,
2014/4/25 4:56,0.4,3,0.4,5,0.8,1,,,,,,,,,,,,,,,,,,,,,,
2014/4/25 4:57,0.4,2,0.4,5,0.6,16,,,,,,,,,,,,,,,,,,,,,,
2014/4/25 4:58,0.5,2,0.5,2,0.9,16,,,,,,,,,,,,,,,,,,,,,,
2014/4/25 4:59,0.5,1,0.5,2,1,16,,,,,,,,,,,,,,,,,,,,,,
2014/4/25 5:00,0.6,1,0.6,1,1.1,16,,,,,,,,,,,,,,,,,,,,,,
2014/4/25 5:01,0.7,1,0.7,1,1.4,16,,,,,,,,,,,,,,,,,,,,,,
2014/4/25 5:02,0.7,16,0.7,1,1.4,16,,,,,,,,,,,,,,,,,,,,,,
2014/4/25 5:03,0.7,16,0.7,1,1.1,16,,,,,,,,,,,,,,,,,,,,,,
2014/4/25 5:04,0.8,16,0.8,16,1,16,,,,,,,,,,,,,,,,,,,,,,
2014/4/25 5:05,0.8,16,0.8,16,1,15,,,,,,,,,,,,,,,,,,,,,,
2014/4/25 5:06,0.7,16,0.8,16,0.6,14,,,,,,,,,,,,,,,,,,,,,,
2014/4/25 5:07,0.7,15,0.7,16,0.4,13,,,,,,,,,,,,,,,,,,,,,,
2014/4/25 5:08,0.7,15,0.7,16,0.4,12,,,,,,,,,,,,,,,,,,,,,,
2014/4/25 5:09,0.6,14,0.7,16,0.3,12,,,,,,,,,,,,,,,,,,,,,,
2014/4/25 5:10,0.5,14,0.6,16,0.1,11,,,,,,,,,,,,,,,,,,,,,,
2014/4/25 5:11,0.4,13,0.5,16,0.5,11,,,,,,,,,,,,,,,,,,,,,,
2014/4/25 5:12,0.4,13,0.4,16,0.5,10,,,,,,,,,,,,,,,,,,,,,,
2014/4/25 5:13,0.3,12,0.4,16,0.4,10,,,,,,,,,,,,,,,,,,,,,,
2014/4/25 5:14,0.3,12,0.3,16,0.3,9,,,,,,,,,,,,,,,,,,,,,,
2014/4/25 5:15,0.2,12,0.2,16,0.5,15,,,,,,,,,,,,,,,,,,,,,,
2014/4/25 5:16,0.2,12,0.2,16,0.5,15,,,,,,,,,,,,,,,,,,,,,,
2014/4/25 5:17,0.2,12,0.2,15,0.1,15,,,,,,,,,,,,,,,,,,,,,,
2014/4/25 5:18,0.1,12,0.2,15,0,13,,,,,,,,,,,,,,,,,,,,,,
2014/4/25 5:19,0.1,12,0.1,14,0.1,15,,,,,,,,,,,,,,,,,,,,,,
2014/4/25 5:20,0.1,13,0.1,14,0.3,16,,,,,,,,,,,,,,,,,,,,,,
2014/4/25 5:21,0.1,14,0.1,13,0,1,,,,,,,,,,,,,,,,,,,,,,
2014/4/25 5:22,0.1,15,0.1,13,0,1,,,,,,,,,,,,,,,,,,,,,,
2014/4/25 5:23,0,15,0.1,12,0,1,,,,,,,,,,,,,,,,,,,,,,
2014/4/25 5:24,0,15,0,12,0.1,10,,,,,,,,,,,,,,,,,,,,,,
2014/4/25 5:25,0,15,0,12,0.1,10,,,,,,,,,,,,,,,,,,,,,,
2014/4/25 5:26,0,15,0,12,0,10,,,,,,,,,,,,,,,,,,,,,,
2014/4/25 5:27,0,14,0,12,0,10,,,,,,,,,,,,,,,,,,,,,,
2014/4/25 5:28,0,13,0,12,0,10,,,,,,,,,,,,,,,,,,,,,,
2014/4/25 5:29,0,12,0,12,0.1,9,,,,,,,,,,,,,,,,,,,,,,
2014/4/25 5:30,0,10,0,13,0,9,,,,,,,,,,,,,,,,,,,,,,
2014/4/25 5:31,0,10,0,14,0.1,9,,,,,,,,,,,,,,,,,,,,,,
2014/4/25 5:32,0,10,0,15,0,9,,,,,,,,,,,,,,,,,,,,,,
2014/4/25 5:33,0,9,0,15,0,9,,,,,,,,,,,,,,,,,,,,,,
2014/4/25 5:34,0,9,0,15,0,9,,,,,,,,,,,,,,,,,,,,,,
2014/4/25 5:35,0,9,0,15,0,9,,,,,,,,,,,,,,,,,,,,,,
2014/4/25 5:36,0,9,0,15,0,9,,,,,,,,,,,,,,,,,,,,,,
2014/4/25 5:37,0,9,0,14,0,9,,,,,,,,,,,,,,,,,,,,,,
2014/4/25 5:38,0,9,0,13,0.1,9,,,,,,,,,,,,,,,,,,,,,,
2014/4/25 5:39,0,9,0,11,0,9,,,,,,,,,,,,,,,,,,,,,,
2014/4/25 5:40,0,9,0,10,0.1,9,,,,,,,,,,,,,,,,,,,,,,
2014/4/25 5:41,0,9,0,10,0,14,,,,,,,,,,,,,,,,,,,,,,
2014/4/25 5:42,0,10,0,10,0,14,,,,,,,,,,,,,,,,,,,,,,
2014/4/25 5:43,0,10,0,9,0,14,,,,,,,,,,,,,,,,,,,,,,
2014/4/25 5:44,0,11,0,9,0,14,,,,,,,,,,,,,,,,,,,,,,
2014/4/25 5:45,0,12,0,9,0,14,,,,,,,,,,,,,,,,,,,,,,
2014/4/25 5:46,0,13,0,9,0,15,,,,,,,,,,,,,,,,,,,,,,
2014/4/25 5:47,0,13,0,9,0,15,,,,,,,,,,,,,,,,,,,,,,
2014/4/25 5:48,0,14,0,9,0,15,,,,,,,,,,,,,,,,,,,,,,
2014/4/25 5:49,0,14,0,9,0.1,10,,,,,,,,,,,,,,,,,,,,,,
2014/4/25 5:50,0,13,0,9,0,10,,,,,,,,,,,,,,,,,,,,,,
2014/4/25 5:51,0,14,0,9,0,11,,,,,,,,,,,,,,,,,,,,,,
2014/4/25 5:52,0,14,0,10,0.1,15,,,,,,,,,,,,,,,,,,,,,,
2014/4/25 5:53,0,14,0,10,0.1,15,,,,,,,,,,,,,,,,,,,,,,
2014/4/25 5:54,0,14,0,11,0.4,16,,,,,,,,,,,,,,,,,,,,,,
2014/4/25 5:55,0,14,0,12,0.4,16,,,,,,,,,,,,,,,,,,,,,,
2014/4/25 5:56,0,15,0,13,0,1,,,,,,,,,,,,,,,,,,,,,,
2014/4/25 5:57,0,15,0,13,0,1,,,,,,,,,,,,,,,,,,,,,,
2014/4/25 5:58,0,15,0,14,0,1,,,,,,,,,,,,,,,,,,,,,,
2014/4/25 5:59,0,16,0,14,0,1,,,,,,,,,,,,,,,,,,,,,,
2014/4/25 6:00,0,16,0,13,0,1,,,,,,,,,,,,,,,,,,,,,,
2014/4/25 6:01,0,16,0,14,0.1,1,,,,,,,,,,,,,,,,,,,,,,
2014/4/25 6:02,0,16,0,14,0,1,,,,,,,,,,,,,,,,,,,,,,
2014/4/25 6:03,0,1,0,14,0,1,,,,,,,,,,,,,,,,,,,,,,
2014/4/25 6:04,0,1,0,14,0,1,,,,,,,,,,,,,,,,,,,,,,
2014/4/25 6:05,0,1,0,14,0,1,,,,,,,,,,,,,,,,,,,,,,
2014/4/25 6:06,0,1,0,15,0,1,,,,,,,,,,,,,,,,,,,,,,
2014/4/25 6:07,0,1,0,15,0.3,9,,,,,,,,,,,,,,,,,,,,,,
2014/4/25 6:08,0,1,0,15,0.5,8,,,,,,,,,,,,,,,,,,,,,,
2014/4/25 6:09,0,1,0,16,0.3,8,,,,,,,,,,,,,,,,,,,,,,
2014/4/25 6:10,0,1,0,16,0.1,8,,,,,,,,,,,,,,,,,,,,,,
2014/4/25 6:11,0,2,0,16,0.1,8,,,,,,,,,,,,,,,,,,,,,,
2014/4/25 6:12,0,5,0,16,0.1,8,,,,,,,,,,,,,,,,,,,,,,
2014/4/25 6:13,0,8,0,1,0.1,8,,,,,,,,,,,,,,,,,,,,,,
2014/4/25 6:14,0,8,0,1,0.3,8,,,,,,,,,,,,,,,,,,,,,,
2014/4/25 6:15,0,8,0,1,0.1,8,,,,,,,,,,,,,,,,,,,,,,
2014/4/25 6:16,0,9,0,1,0.4,12,,,,,,,,,,,,,,,,,,,,,,
2014/4/25 6:17,0.1,9,0.1,9,0.5,10,,,,,,,,,,,,,,,,,,,,,,
2014/4/25 6:18,0.1,9,0.1,9,0.6,9,,,,,,,,,,,,,,,,,,,,,,
2014/4/25 6:19,0.1,9,0.1,9,0.9,9,,,,,,,,,,,,,,,,,,,,,,
2014/4/25 6:20,0.1,9,0.1,9,0.4,9,,,,,,,,,,,,,,,,,,,,,,
2014/4/25 6:21,0.1,9,0.1,9,0.3,12,,,,,,,,,,,,,,,,,,,,,,
2014/4/25 6:22,0.1,9,0.1,9,0.1,5,,,,,,,,,,,,,,,,,,,,,,
2014/4/25 6:23,0.1,9,0.1,9,0.1,5,,,,,,,,,,,,,,,,,,,,,,
2014/4/25 6:24,0.1,8,0.1,9,0.1,5,,,,,,,,,,,,,,,,,,,,,,
2014/4/25 6:25,0.1,7,0.1,9,0.5,5,,,,,,,,,,,,,,,,,,,,,,
2014/4/25 6:26,0.2,7,0.2,7,0.5,5,,,,,,,,,,,,,,,,,,,,,,
2014/4/25 6:27,0.1,6,0.2,7,0.1,5,,,,,,,,,,,,,,,,,,,,,,
2014/4/25 6:28,0.1,6,0.1,7,0.3,6,,,,,,,,,,,,,,,,,,,,,,
2014/4/25 6:29,0.1,5,0.1,7,0.3,6,,,,,,,,,,,,,,,,,,,,,,
2014/4/25 6:30,0.1,5,0.1,7,0.4,6,,,,,,,,,,,,,,,,,,,,,,
2014/4/25 6:31,0.1,6,0.1,7,0.4,6,,,,,,,,,,,,,,,,,,,,,,
2014/4/25 6:32,0.1,6,0.1,7,0.1,6,,,,,,,,,,,,,,,,,,,,,,
2014/4/25 6:33,0.1,6,0.1,7,0.1,6,,,,,,,,,,,,,,,,,,,,,,
2014/4/25 6:34,0.1,6,0.1,7,0.1,6,,,,,,,,,,,,,,,,,,,,,,
2014/4/25 6:35,0.1,6,0.1,7,0.4,6,,,,,,,,,,,,,,,,,,,,,,
2014/4/25 6:36,0,6,0.1,6,0.1,6,,,,,,,,,,,,,,,,,,,,,,
2014/4/25 6:37,0,6,0,6,0.3,6,,,,,,,,,,,,,,,,,,,,,,
2014/4/25 6:38,0,6,0,6,0.1,6,,,,,,,,,,,,,,,,,,,,,,
2014/4/25 6:39,0,6,0,5,0.1,6,,,,,,,,,,,,,,,,,,,,,,
2014/4/25 6:40,0,6,0,5,0.3,6,,,,,,,,,,,,,,,,,,,,,,
2014/4/25 6:41,0,6,0,6,0.1,6,,,,,,,,,,,,,,,,,,,,,,
2014/4/25 6:42,0,6,0,6,0,6,,,,,,,,,,,,,,,,,,,,,,
2014/4/25 6:43,0,6,0,6,0.1,6,,,,,,,,,,,,,,,,,,,,,,
2014/4/25 6:44,0,6,0,6,0.3,6,,,,,,,,,,,,,,,,,,,,,,
2014/4/25 6:45,0,6,0,6,0.1,6,,,,,,,,,,,,,,,,,,,,,,
2014/4/25 6:46,0,6,0,6,0.3,6,,,,,,,,,,,,,,,,,,,,,,
2014/4/25 6:47,0,6,0,6,0.3,6,,,,,,,,,,,,,,,,,,,,,,
2014/4/25 6:48,0,6,0,6,0.1,6,,,,,,,,,,,,,,,,,,,,,,
2014/4/25 6:49,0,6,0,6,0.1,6,,,,,,,,,,,,,,,,,,,,,,
2014/4/25 6:50,0,6,0,6,0.3,6,,,,,,,,,,,,,,,,,,,,,,
2014/4/25 6:51,0,6,0,6,0.4,6,,,,,,,,,,,,,,,,,,,,,,
2014/4/25 6:52,0,6,0,6,0.3,6,,,,,,,,,,,,,,,,,,,,,,
2014/4/25 6:53,0,6,0,6,0.1,6,,,,,,,,,,,,,,,,,,,,,,
2014/4/25 6:54,0,6,0,6,0.3,6,,,,,,,,,,,,,,,,,,,,,,
2014/4/25 6:55,0,6,0,6,0.1,6,,,,,,,,,,,,,,,,,,,,,,
2014/4/25 6:56,0.1,6,0.1,6,0.5,6,,,,,,,,,,,,,,,,,,,,,,
2014/4/25 6:57,0.1,6,0.1,6,0.6,6,,,,,,,,,,,,,,,,,,,,,,
2014/4/25 6:58,0.1,6,0.1,6,0.6,6,,,,,,,,,,,,,,,,,,,,,,
2014/4/25 6:59,0.2,6,0.2,6,0.9,6,,,,,,,,,,,,,,,,,,,,,,
2014/4/25 7:00,0.2,6,0.2,6,0.5,6,,,,,,,,,,,,,,,,,,,,,,
2014/4/25 7:01,0.2,6,0.2,6,0.1,6,,,,,,,,,,,,,,,,,,,,,,
2014/4/25 7:02,0.2,6,0.2,6,0.1,6,,,,,,,,,,,,,,,,,,,,,,
2014/4/25 7:03,0.2,6,0.2,6,0.1,6,,,,,,,,,,,,,,,,,,,,,,
2014/4/25 7:04,0.2,6,0.2,6,0.1,6,,,,,,,,,,,,,,,,,,,,,,